EN

Hourly Weather Brzozogaj

Today, 16 April, Friday

Time Temperature Precipitation Wind Pressure Humidity
00:00 +1°C° 0.2 mm 4 mps 755 mmHg 93%
01:00 +1°C° 0.2 mm 5 mps 755 mmHg 92%
02:00 +1°C° 0.1 mm 5 mps 755 mmHg 93%
03:00 +1°C° 0.1 mm 5 mps 755 mmHg 93%
04:00 +1°C° 0.1 mm 5 mps 755 mmHg 93%
05:00 +1°C° 0 mm 5 mps 755 mmHg 93%
06:00 +1°C° 0 mm 5 mps 755 mmHg 93%
07:00 +1°C° 0 mm 5 mps 755 mmHg 93%
08:00 +2°C° 0 mm 5 mps 755 mmHg 89%
09:00 +2°C° 0 mm 5 mps 755 mmHg 84%
10:00 +3°C° 0 mm 5 mps 755 mmHg 80%
11:00 +5°C° 0 mm 5 mps 755 mmHg 80%
12:00 +5°C° 0 mm 5 mps 755 mmHg 80%
13:00 +5°C° 0 mm 5 mps 755 mmHg 81%
14:00 +3°C° 0 mm 5 mps 755 mmHg 84%
15:00 +4°C° 0 mm 4 mps 754 mmHg 88%
16:00 +4°C° 0 mm 4 mps 754 mmHg 91%
17:00 +4°C° 0.2 mm 4 mps 754 mmHg 92%
18:00 +3°C° 0.2 mm 4 mps 754 mmHg 92%
19:00 +3°C° 0.2 mm 4 mps 754 mmHg 92%
20:00 +3°C° 0.5 mm 4 mps 754 mmHg 93%
21:00 +3°C° 0.5 mm 4 mps 754 mmHg 95%
22:00 +3°C° 0.5 mm 3 mps 754 mmHg 96%
23:00 +3°C° 0 mm 3 mps 754 mmHg 96%

Tomorrow, 17 April, Saturday

Time Temperature Precipitation Wind Pressure Humidity
00:00 +3°C° 0 mm 3 mps 754 mmHg 96%
01:00 +4°C° 0 mm 2 mps 754 mmHg 96%
02:00 +4°C° 0 mm 2 mps 754 mmHg 97%
03:00 +4°C° 0 mm 2 mps 754 mmHg 97%
04:00 +4°C° 0 mm 2 mps 754 mmHg 97%
05:00 +5°C° 0 mm 2 mps 754 mmHg 96%
06:00 +5°C° 0 mm 2 mps 754 mmHg 96%
07:00 +5°C° 0 mm 3 mps 754 mmHg 95%
08:00 +5°C° 0 mm 3 mps 754 mmHg 93%
09:00 +7°C° 0 mm 3 mps 754 mmHg 91%
10:00 +8°C° 0 mm 3 mps 754 mmHg 89%
11:00 +9°C° 0.1 mm 3 mps 754 mmHg 87%
12:00 +9°C° 0.1 mm 3 mps 754 mmHg 85%
13:00 +9°C° 0.1 mm 3 mps 754 mmHg 83%
14:00 +10°C° 0.1 mm 3 mps 754 mmHg 82%
15:00 +10°C° 0.1 mm 3 mps 754 mmHg 81%
16:00 +10°C° 0.1 mm 3 mps 754 mmHg 81%
17:00 +9°C° 0.1 mm 3 mps 754 mmHg 83%
18:00 +9°C° 0.1 mm 2 mps 754 mmHg 86%
19:00 +8°C° 0.1 mm 2 mps 755 mmHg 89%
20:00 +7°C° 0.1 mm 2 mps 755 mmHg 91%
21:00 +7°C° 0.1 mm 2 mps 755 mmHg 92%
22:00 +7°C° 0.1 mm 2 mps 755 mmHg 94%
23:00 +6°C° 0 mm 2 mps 755 mmHg 94%

Day after tomorrow, 18 April, Sunday

Time Temperature Precipitation Wind Pressure Humidity
00:00 +6°C° 0 mm 2 mps 755 mmHg 94%
01:00 +6°C° 0 mm 2 mps 755 mmHg 95%
02:00 +5°C° 0 mm 2 mps 755 mmHg 95%
03:00 +5°C° 0 mm 2 mps 755 mmHg 95%
04:00 +5°C° 0 mm 2 mps 755 mmHg 95%
05:00 +6°C° 0 mm 2 mps 755 mmHg 92%
06:00 +6°C° 0 mm 2 mps 755 mmHg 90%
07:00 +7°C° 0 mm 2 mps 755 mmHg 88%
08:00 +9°C° 0 mm 3 mps 755 mmHg 83%
09:00 +10°C° 0 mm 3 mps 755 mmHg 79%
10:00 +12°C° 0 mm 3 mps 755 mmHg 75%
11:00 +12°C° 0.1 mm 3 mps 755 mmHg 70%
12:00 +13°C° 0.1 mm 3 mps 755 mmHg 65%
13:00 +14°C° 0.1 mm 3 mps 755 mmHg 60%
14:00 +14°C° 0.1 mm 3 mps 755 mmHg 61%
15:00 +14°C° 0.1 mm 3 mps 754 mmHg 62%
16:00 +14°C° 0.1 mm 3 mps 754 mmHg 63%
17:00 +13°C° 0.4 mm 3 mps 754 mmHg 71%
18:00 +12°C° 0.4 mm 3 mps 754 mmHg 79%
19:00 +10°C° 0.4 mm 4 mps 755 mmHg 86%
20:00 +10°C° 0.1 mm 4 mps 755 mmHg 89%
21:00 +8°C° 0.1 mm 4 mps 755 mmHg 91%
22:00 +7°C° 0.1 mm 4 mps 755 mmHg 93%
23:00 +8°C° 0 mm 3 mps 755 mmHg 93%

19 April, Monday

Time Temperature Precipitation Wind Pressure Humidity
00:00 +7°C° 0 mm 3 mps 754 mmHg 94%
01:00 +5°C° 0 mm 3 mps 754 mmHg 94%
02:00 +7°C° 0 mm 3 mps 754 mmHg 94%
03:00 +7°C° 0 mm 3 mps 754 mmHg 94%
04:00 +7°C° 0 mm 2 mps 754 mmHg 94%
05:00 +7°C° 0 mm 2 mps 754 mmHg 93%
06:00 +8°C° 0 mm 2 mps 754 mmHg 92%
07:00 +8°C° 0 mm 2 mps 754 mmHg 91%
08:00 +9°C° 0 mm 2 mps 754 mmHg 86%
09:00 +10°C° 0 mm 3 mps 754 mmHg 82%
10:00 +10°C° 0 mm 3 mps 754 mmHg 78%
11:00 +11°C° 0 mm 3 mps 754 mmHg 70%
12:00 +12°C° 0 mm 3 mps 754 mmHg 62%
13:00 +13°C° 0 mm 4 mps 753 mmHg 54%
14:00 +13°C° 0 mm 4 mps 753 mmHg 54%
15:00 +13°C° 0 mm 4 mps 753 mmHg 54%
16:00 +13°C° 0 mm 4 mps 752 mmHg 53%
17:00 +12°C° 0 mm 3 mps 752 mmHg 59%
18:00 +10°C° 0 mm 3 mps 752 mmHg 65%
19:00 +9°C° 0 mm 2 mps 752 mmHg 71%
20:00 +8°C° 0 mm 3 mps 752 mmHg 75%
21:00 +7°C° 0 mm 3 mps 752 mmHg 80%
22:00 +5°C° 0 mm 3 mps 752 mmHg 84%
23:00 +6°C° 0 mm 2 mps 752 mmHg 86%

20 April, Tuesday

Time Temperature Precipitation Wind Pressure Humidity
00:00 +5°C° 0 mm 2 mps 751 mmHg 88%
01:00 +5°C° 0 mm 2 mps 751 mmHg 90%
02:00 +5°C° 0 mm 2 mps 751 mmHg 90%
03:00 +4°C° 0 mm 2 mps 751 mmHg 90%
04:00 +4°C° 0 mm 2 mps 751 mmHg 91%
05:00 +4°C° 0 mm 3 mps 750 mmHg 86%
06:00 +5°C° 0 mm 3 mps 750 mmHg 81%
07:00 +7°C° 0 mm 3 mps 750 mmHg 77%
08:00 +8°C° 0 mm 3 mps 750 mmHg 71%
09:00 +10°C° 0 mm 3 mps 750 mmHg 66%
10:00 +11°C° 0 mm 3 mps 750 mmHg 61%
11:00 +11°C° 0.1 mm 3 mps 749 mmHg 58%
12:00 +12°C° 0.1 mm 3 mps 749 mmHg 56%
13:00 +12°C° 0.1 mm 3 mps 748 mmHg 53%
14:00 +12°C° 0 mm 3 mps 748 mmHg 54%
15:00 +12°C° 0 mm 3 mps 748 mmHg 55%
16:00 +12°C° 0 mm 3 mps 748 mmHg 56%
17:00 +11°C° 0 mm 3 mps 748 mmHg 62%
18:00 +9°C° 0 mm 3 mps 747 mmHg 68%
19:00 +8°C° 0 mm 3 mps 747 mmHg 74%
20:00 +7°C° 0 mm 3 mps 747 mmHg 77%
21:00 +5°C° 0 mm 3 mps 747 mmHg 81%
22:00 +4°C° 0 mm 3 mps 747 mmHg 84%
23:00 +4°C° 0 mm 3 mps 747 mmHg 87%

21 April, Wednesday

Time Temperature Precipitation Wind Pressure Humidity
00:00 +3°C° 0 mm 3 mps 747 mmHg 90%
01:00 +2°C° 0 mm 3 mps 747 mmHg 92%
02:00 +2°C° 0 mm 3 mps 747 mmHg 93%
03:00 +2°C° 0 mm 3 mps 747 mmHg 93%
04:00 +1°C° 0 mm 3 mps 747 mmHg 94%
05:00 +1°C° 0 mm 4 mps 747 mmHg 89%
06:00 +3°C° 0 mm 4 mps 747 mmHg 83%
07:00 +4°C° 0 mm 4 mps 747 mmHg 78%
08:00 +5°C° 0 mm 5 mps 747 mmHg 76%
09:00 +6°C° 0 mm 5 mps 747 mmHg 75%
10:00 +7°C° 0 mm 5 mps 748 mmHg 73%
11:00 +8°C° 0.1 mm 6 mps 748 mmHg 68%
12:00 +9°C° 0.1 mm 6 mps 747 mmHg 63%
13:00 +10°C° 0.1 mm 6 mps 747 mmHg 58%
14:00 +10°C° 0.1 mm 6 mps 747 mmHg 59%
15:00 +12°C° 0.1 mm 5 mps 748 mmHg 60%
16:00 +12°C° 0.1 mm 5 mps 748 mmHg 61%
17:00 +10°C° 0 mm 4 mps 748 mmHg 66%
18:00 +8°C° 0 mm 4 mps 748 mmHg 70%
19:00 +8°C° 0 mm 3 mps 748 mmHg 75%
20:00 +7°C° 0 mm 3 mps 748 mmHg 77%
21:00 +5°C° 0 mm 3 mps 748 mmHg 80%
22:00 +5°C° 0 mm 3 mps 748 mmHg 82%
23:00 +5°C° 0 mm 3 mps 748 mmHg 82%
Show more

We Need Your Consent

Meteoprog and our Service Providers may store and access personal data such as cookies, device identifiers or other similar technologies on your device and process such data to personalise content and ads, as well as provide social media features and to analyse the traffic.

  • Store and/or access information on your device

    Cookies, device identifiers or other information can be stored or accessed on your device for the purposes indicated above.

  • Personalised ads and content, ad and content measurement, audience insights, and products development

    Ads and content can be personalised based on a profile. More data can be added to better personalise ads and content. Ad and content performance can be measured. Insights about the audience who saw the ads and content can be derived. Such data can be used to develop or improve user’s experience, systems and software.

By clicking ‘I Agree’ you will allow the use of indicated cookies, device identifiers, web beacons or other similar technologies. Your settings can be changed in the browser on your device.

For certain purposes, legitimate interests may be relied on, rather than consent. You can read more about this in our Privacy and Cookie Policy.